Location: San Martino di Castrozza
(46.2667°N, 11.8000°E)
Time: 03:29:55
(UTC+00:00)

ARIANE 5 R/B - Pass Details

Date: 23 April 2021
Orbit: 749 x 794 km, 98.7° (Epoch: 15 May)

Event Time Altitude Azimuth Distance (km) Brightness Sun altitude
Rises 01:54:26 0° 19° (NNE) 3,307 6.9 -20.7°
Reaches altitude 10° 01:56:53 10° 26° (NNE) 2,372 6.1 -20.4°
Maximum altitude 02:01:55 46° 99° (E) 1,057 3.4 -19.8°
Enters shadow 02:05:54 16° 168° (SSE) 1,985 4.3 -19.3°
